Вернуться в каталог

KUIPER-00276

АктивенСвязьLEO
NORAD 67794·PAYLOAD·🇺🇸 United States

Запущен Feb 12, 2026 с Guiana Space Centre

Loading…

Ближайшие Пролёты (ближайшие 24 часа)

TLE

СвежийSource: CelesTrak SupGP

Эпоха: Sep 14, 2026, 18:10 UTC

1 67794C 26030AG  26257.75740741  .00002479  00000+0  32459-3 0  2575
2 67794  51.8978  72.0450 0001027  89.5016  64.2089 14.79916575    14

Отслеживайте KUIPER-00276 в реальном времени с AllMySat

Download on the App Store